NOAA 16 DEB

Satellite information

Favourite Embed

Satellite Type and Status

DEBRISIN ORBIT

Key statistics

Satellite NOAA 16 DEB at a glance.

Uptime

9214

Days in orbit

Revolutions

≈ 14.2

Per day

Orbit

SSO

Sun Synchronous Orbit

Inclination

98.6

Latest

Satellite identification and parameters

Extended collection of information and parameters for NOAA 16 DEB.

Object identification

Identified? True

Debris? True

Object name: NOAA 16 DEB

International designator: 2000-055TW

Object number (NORAD): 42426

Object ID (CCSDS): 42426

Country: UNITED STATES OF AMERICA (US)

Current information (Y/N): Y

RCS size: SMALL

Orbital parameters

Period: 101.105 minutes

Inclination: 98.5911 deg

SMA: 7189.115 km

Apoapsis: 819.677 km

Periapsis: 802.284 km

RAAN: 1.601 deg

Eccentricy: 0.0012097

Argument of periapsis: 352.9987 deg

Mean anomaly: 7.1021 deg

Mean motion: 14.24261014 rev/day

Mean motion (dot): 0.00007012 rev/day2

B* drag term: 0.0030525509 1/REarth

Two-line elements (TLE)

Creation date: Dec. 5, 2025, 10:48 a.m.

Reference frame: TEME

Reference center: EARTH

Epoch: Dec. 5, 2025, 7:39 a.m. UTC

TLE line 0: 0 NOAA 16 DEB

TLE line 1: 1 42426U 00055TW 25339.31938297 .00007012 00000-0 30526-2 0 9990

TLE line 2: 2 42426 98.5911 1.6010 0012097 352.9987 7.1021 14.24261014480652

Live tracking on map

Real-time ground track for satellite NOAA 16 DEB.

In-orbit conjunctions

A list of the most updated potential collisions computed for object NOAA 16 DEB.

Target Orbit TCA Probability of collision Miss distance Type
SL-12 R/B(AUX MOTOR) LEO 2025-04-20 00:47:58 0.0002279889 367.0 (m) ROCKET BODY
NOAA 11 SSO 2024-12-11 23:55:57 0.0001048826 942.0 (m) PAYLOAD
FENGYUN 1C DEB SSO 2024-09-25 21:43:03 0.0001080423 698.0 (m) DEBRIS
SL-16 R/B LEO 2024-09-02 17:25:44 0.000180735 146.0 (m) ROCKET BODY

Associated space launch

The NOAA K, L and M POES satellites begin the fifth generation of improved environmental monitoring in support of NOAA missions. The instrument payload has significant improvements and additions/deletions. The instrument changes have effected the spacecraft subsystems and data formats.

NOAA 16 DEB was lifted into orbit during the mission ‘Titan II SLV | NOAA 16’, on board a Titan II SLV space rocket.

The launch took place on Sept. 21, 2000, 10:22 a.m. from Space Launch Complex 4W.

For more information about the launch, click the button.

Launch to space Titan II SLV | NOAA 16
Titan II SLV | NOAA 16

Agency: N/A

Status: Launch Successful

Launch date: Sept. 21, 2000, 10:22 a.m. UTC

Rocket: Titan II SLV

Launch pad: Space Launch Complex 4W

Location: Vandenberg SFB, CA, USA

...

Latest news about this satellite

There are no fresh news available about this satellite. Check back as we update our databases every day.


Newsletter sign-up

Weekly statistics, charts and insights to help you stay on top of the space industry.